Location: Northam
(31.6525°S, 116.6655°E)
Time: 19:56:56
(UTC+08:00)

AAUSAT CUBESAT 2 - Pass Details

Date: 26 July 2021
Orbit: 572 x 587 km, 97.5° (Epoch: 18 September)

Event Time Altitude Azimuth Distance (km) Brightness Sun altitude
Rises 18:01:17 0° 180° (S) 2,849 ? -6.2°
Reaches altitude 10° 18:03:35 10° 188° (S) 1,940 ? -6.7°
Maximum altitude 18:07:25 35° 254° (WSW) 967 ? -7.5°
Drops below altitude 10° 18:11:13 10° 319° (NW) 1,915 ? -8.2°
Sets 18:13:29 0° 328° (NNW) 2,807 ? -8.7°
